#timestamp,LO_Frequency,Hit,StdDev 
1624856415.6,286046999.7,N
1624856435.4,286047002.7,N
1624856455.3,286047002.2,N
1624856475.1,286047002.8,N
1624856495.9,286046999.8,N
1624856515.7,286047002.5,N
1624856535.5,286047000.4,N
1624856555.4,286047000.2,N
1624856575.2,286047002.0,N
1624856595.0,286047004.3,Y
1624856595.9,286047004.3,P
1624856615.8,286047002.7,N
1624856635.6,286047002.7,N
1624856655.5,286047000.4,N
1624856675.3,286047002.8,N
1624856695.1,286047000.2,N
1624856715.9,286047002.5,N
1624856735.7,286047000.0,N
1624856755.5,286047002.4,N
1624856775.4,286047000.2,N
1624856795.2,286046999.7,N
1624856815.1,286047002.2,N
1624856816.0,286047002.2,N
1624856835.8,286047000.1,N
1624856855.6,286047001.6,N
1624856875.5,286047001.7,N
1624856895.3,286047004.0,Y
1624856915.2,286046999.8,P
1624856935.9,286047000.0,N
1624856955.7,286047000.0,N
1624856975.6,286046998.3,N
1624856995.4,286047000.8,N
1624857015.2,286046999.6,N
1624857035.1,286047000.4,N
1624857036.0,286047000.4,N
1624857055.8,286047000.0,N
1624857075.7,286046999.9,N
1624857095.5,286047001.4,N
1624857115.3,286047001.9,N
1624857135.2,286047004.3,Y
1624857155.0,286047002.0,P
1624857155.9,286047002.0,N
1624857175.7,286046999.9,N
1624857195.6,286047001.9,N
1624857215.4,286047004.4,Y
1624857235.3,286047000.0,P
1624857255.1,286047000.2,N
1624857256.0,286047000.2,N
1624857275.8,286047001.0,N
1624857295.7,286047000.7,N
1624857315.5,286046999.4,N
1624857335.3,286046998.5,N
1624857355.2,286046996.9,Y
1624857375.0,286046995.7,P
1624857375.9,286046995.7,N
1624857395.8,286046996.4,N
1624857415.6,286046994.3,Y
1624857435.4,286046995.4,P
1624857455.3,286046997.7,N
1624857475.1,286046996.8,P
1624857495.9,286046996.2,Y
1624857515.7,286046996.8,P
1624857535.5,286046995.6,P
1624857555.4,286046996.4,P
1624857575.2,286046993.4,Y
1624857595.0,286046995.7,P
1624857596.0,286046995.7,P
1624857615.8,286046995.9,P
1624857635.6,286046995.8,Y
1624857655.5,286047002.5,P
1624857675.3,286046998.6,N
1624857695.1,286047000.4,N
1624857715.9,286046999.4,N
1624857735.7,286046996.6,N
1624857755.6,286046995.4,N
1624857775.4,286046996.2,N
1624857795.2,286046995.9,N
1624857815.1,286046995.5,N
1624857816.0,286046995.5,N
1624857835.8,286046997.3,N
1624857855.6,286046997.4,N
1624857875.5,286046997.5,N
1624857895.3,286046996.7,N
1624857915.1,286046999.3,N
1624857935.9,286046998.3,N
1624857955.7,286046996.6,N
1624857975.6,286046998.4,N
1624857995.4,286046998.5,N
1624858015.2,286047001.2,N
1624858035.1,286046999.2,N
1624858036.0,286046999.2,N
1624858055.8,286047000.4,N
1624858075.7,286047002.0,N
1624858095.5,286047003.4,N
1624858115.3,286047002.0,N
1624858135.2,286047002.4,N
1624858155.9,286047001.2,N
1624858175.7,286046996.5,N
1624858195.6,286046998.5,N
1624858215.4,286046998.4,N
1624858235.2,286046996.8,N
1624858255.1,286046997.9,N
1624858256.0,286046997.9,N
1624858275.8,286046997.9,N
1624858295.7,286046993.3,Y
1624858315.5,286046997.7,P
1624858335.3,286046995.1,P
1624858355.2,286046995.3,P
1624858375.0,286046995.7,N
1624858375.9,286046995.7,Y
1624858395.8,286046998.1,P
1624858415.6,286046998.4,N
1624858435.4,286047001.2,N
1624858455.3,286047004.4,N
1624858475.1,286047001.7,N
1624858495.8,286047002.3,N
1624858515.7,286046998.2,N
1624858535.5,286046999.4,N
1624858555.1,286046999.0,N
1624858556.0,286046999.0,N
1624858575.8,286046997.1,N
1624858595.7,286046994.9,N
1624858615.5,286046997.7,N
1624858635.3,286046995.7,N
1624858655.2,286046995.9,N
1624858675.0,286046995.7,N
1624858675.9,286046995.7,N
1624858695.7,286046995.9,N
1624858715.6,286046993.3,N
1624858735.4,286046993.8,N
1624858755.3,286046993.5,N
1624858775.1,286046993.3,N
1624858776.0,286046993.3,N
1624858795.8,286046993.8,N
1624858815.7,286046993.7,N
1624858835.5,286046993.9,N
1624858855.3,286046996.3,N
1624858875.2,286046996.0,N
1624858895.0,286046995.9,N
1624858895.9,286046995.9,N
1624858915.8,286046993.5,N
1624858935.6,286046993.6,N
1624858955.8,286046994.6,N
1624858975.6,286046992.1,N
1624858995.5,286046994.4,N
1624859015.3,286046992.6,Y
1624859035.2,286046996.5,P
1624859055.9,286046999.1,N
1624859075.7,286046996.6,N
1624859095.6,286046999.0,N
1624859115.4,286046999.4,N
1624859135.2,286046998.1,N
1624859155.1,286047001.0,N
1624859156.0,286047001.0,N
1624859175.8,286047000.6,N
1624859195.7,286046999.3,N
1624859215.5,286046999.5,N
1624859235.3,286046999.2,N
1624859255.2,286046999.2,N
1624859275.0,286046996.5,N
1624859275.9,286046996.5,N
1624859295.7,286046996.5,N
1624859315.6,286046999.2,N
1624859335.4,286046998.3,N
1624859355.3,286046998.3,N
1624859375.1,286046999.9,N
1624859376.0,286046999.9,N
1624859395.8,286047000.0,N
1624859415.7,286046999.7,N
1624859435.5,286047001.8,N
1624859455.3,286047003.2,N
1624859475.2,286047005.0,N
1624859495.0,286047006.3,N
1624859495.9,286047006.3,N
1624859515.8,286047008.6,Y
1624859535.6,286047010.6,P
1624859555.5,286047007.7,N
1624859575.3,286047008.1,N
1624859595.1,286047008.2,N
1624859615.9,286047013.6,Y
1624859635.7,286047004.7,P
1624859655.6,286047003.4,P
1624859675.4,286047004.1,N
1624859695.2,286047003.4,N
1624859715.1,286047003.0,N
1624859716.0,286047003.0,N
1624859735.8,286047005.4,Y
1624859755.7,286047002.5,P
1624859775.5,286047004.4,P
1624859795.3,286047004.2,P
1624859815.2,286047002.0,N
1624859835.0,286047004.0,Y
1624859835.9,286047004.0,P
1624859855.8,286046999.0,P
1624859875.6,286047000.9,N
1624859895.4,286047000.4,N
1624859915.3,286047000.6,N
1624859935.1,286046998.1,N
1624859955.9,286047001.1,N
1624859975.7,286046998.7,N
1624859995.5,286046999.4,N
